Location: Home
(51.5204°N, 2.5456°W)
Time: 00:10:47
(UTC+00:00)

SEEDS - Visible Passes

Search period start: 16 December 2019 00:00
Search period end: 26 December 2019 00:00
Orbit: 585 x 604 km, 97.5° (Epoch: 14 December)

Date Brightness Start Highest point End Pass type
(mag) Time Alt. Az. Time Alt. Az. Time Alt. Az.
16 Dec ? 04:51:57 10° NE 04:54:20 15° E 04:56:42 10° ESE visible
16 Dec ? 06:26:15 10° N 06:30:29 73° WNW 06:34:43 10° SSW visible
16 Dec ? 17:22:27 10° S 17:26:31 55° W 17:30:39 10° NNW visible
17 Dec ? 05:01:05 10° NE 05:04:00 18° E 05:06:54 10° SE visible
17 Dec ? 06:35:51 10° N 06:40:01 59° WNW 06:44:11 10° SSW visible
17 Dec ? 17:32:08 10° S 17:36:07 44° W 17:40:09 10° NNW visible
18 Dec ? 05:10:21 10° NE 05:13:40 22° E 05:16:57 10° SE visible
18 Dec ? 06:45:28 10° N 06:49:33 48° WNW 06:53:37 10° SW visible
18 Dec ? 17:41:54 10° SSW 17:45:44 35° W 17:49:37 10° NNW visible
19 Dec ? 05:19:41 10° NE 05:23:18 26° E 05:26:53 10° SSE visible
19 Dec ? 06:55:06 10° N 06:59:03 39° WNW 07:03:00 10° SW visible
19 Dec ? 17:51:42 10° SSW 17:55:20 29° W 17:59:02 10° NNW visible
20 Dec ? 05:29:05 10° NNE 05:32:56 32° E 05:36:44 10° SSE visible
20 Dec ? 07:04:46 10° N 07:08:33 32° WNW 07:12:21 10° SW visible
20 Dec ? 18:01:36 10° SSW 18:04:58 24° W 18:08:24 10° NW visible
21 Dec ? 05:38:31 10° NNE 05:42:32 39° E 05:46:32 10° SSE visible
21 Dec ? 07:14:27 10° N 07:18:03 27° WNW 07:21:37 10° WSW visible
21 Dec ? 18:11:34 10° SW 18:14:37 19° W 18:17:42 10° NW visible
22 Dec ? 05:47:59 10° NNE 05:52:08 49° E 05:56:15 10° S visible
22 Dec ? 07:24:11 10° N 07:27:31 23° WNW 07:30:50 10° WSW visible
22 Dec ? 16:44:04 10° SSE 16:48:11 65° ENE 16:52:23 10° N visible
22 Dec ? 18:21:40 10° SW 18:24:17 16° W 18:26:55 10° NW visible
23 Dec ? 05:57:29 10° NNE 06:01:43 61° E 06:05:55 10° S visible
23 Dec ? 16:53:33 10° SSE 16:57:43 80° ENE 17:01:57 10° NNW visible
23 Dec ? 18:31:58 10° WSW 18:33:57 13° W 18:35:56 10° WNW visible
24 Dec ? 06:07:01 10° NNE 06:11:18 76° ESE 06:15:32 10° S visible
24 Dec ? 17:03:06 10° SSE 17:07:16 83° WSW 17:11:31 10° NNW visible
24 Dec ? 18:42:50 10° W 18:43:38 10° W 18:44:28 10° WNW visible
25 Dec ? 04:42:50 10° ENE 04:44:35 12° E 04:46:19 10° ESE visible
25 Dec ? 06:16:34 10° NNE 06:20:51 87° WNW 06:25:06 10° SSW visible
25 Dec ? 17:12:41 10° S 17:16:50 67° WSW 17:21:03 10° NNW visible
